ROMMA est une association bénévole à but non lucratif. Votre soutien est indispensable : ADHERER à ROMMA ou FAIRE un DON

Tourrette-Levens - (06, Alpes-Maritimes)

Côte-d'Azur (416 m)   Longitude: 07° 16' 12" E   Latitude: 43° 47' 24" N Station partenaire n°152
 

Détail journalier du     <<     >>

Température Precipitation Humidité Pression Vent Dir Rafale Dir. rafale Ensol.
Heure (°C) (mm) (%) (hPa) (km/h) (km/h) (min)
01:00 10.605810195NNE23O0
02:00 9.906010194ONO24NNO0
03:00 11.105210194NNE18NO0
04:00 11.205010196NNE24ONO0
05:00 11.304810196ESE27NO0
06:00 10.905110187NE26OSO0
07:00 11.20.24910198N24O0
08:00 12.704710196NE19ENE0
09:00 13.704410198NNE27NE40
10:00 15.503610198NNE23OSO60
11:00 17.204210196NNE19OSO60
12:00 17.105810196S18S60
13:00 18.305210195ESE19SO59
14:00 18.304510196ESE19E60
15:00 18.704810195ESE15SSO60
16:00 18.204510185ESE16ESE53
17:00 18.504710184ESE11ESE58
18:00 14.806610184SSO19NO19
19:00 13.407110183O13SSO0
20:00 11.308010182O13NO0
21:00 10.40811018000
22:00 9.70781018000
23:00 9.20791018000
minuit 9.20791017000

Graphique du 27-04-2019

 

Serveur OMMA